owner,sensor,date,latitude,longitude,vertical_datum,wind_speed,wind_to_direction,wind_speed_of_gust,qcFlag 
TABS,ioos:station:wmo:42046:1,2008-04-01T00:00:00Z,27.8903,-94.0367,4.0,8.339838128,162.4126188,11.13,'11111222,11111222,11111222' 
TABS,ioos:station:wmo:42046:1,2008-04-01T00:30:00Z,27.8903,-94.0367,4.0,7.586013446,163.1418511,9.72,'11111222,11111222,11111222' 
TABS,ioos:station:wmo:42046:1,2008-04-01T01:00:00Z,27.8903,-94.0367,4.0,7.513487872,169.1838334,9.55,'11111222,11111222,11111222' 
TABS,ioos:station:wmo:42046:1,2008-04-01T01:30:00Z,27.8903,-94.0367,4.0,6.806004702,173.3346521,9.36,'11111222,11111222,11111222' 
TABS,ioos:station:wmo:42046:1,2008-04-01T02:00:00Z,27.8903,-94.0367,4.0,7.139355713,169.508758,9.4,'11111222,11111222,11111222' 
TABS,ioos:station:wmo:42046:1,2008-04-01T02:30:00Z,27.8903,-94.0367,4.0,7.267220927,167.6852208,9.13,'11111222,11111222,11111222' 
TABS,ioos:station:wmo:42046:1,2008-04-01T03:00:00Z,27.8903,-94.0367,4.0,6.585696622,168.3490598,8.79,'11111222,11111222,11111222' 
TABS,ioos:station:wmo:42046:1,2008-04-01T03:30:00Z,27.8903,-94.0367,4.0,6.13710844,167.8663587,7.94,'11111222,11111222,11111222' 
TABS,ioos:station:wmo:42046:1,2008-04-01T04:00:00Z,27.8903,-94.0367,4.0,5.750895582,167.7523967,7.52,'11111222,11111222,11111222' 
TABS,ioos:station:wmo:42046:1,2008-04-01T04:30:00Z,27.8903,-94.0367,4.0,5.371424392,171.3270567,6.9,'11111222,11111222,11111222' 
TABS,ioos:station:wmo:42046:1,2008-04-01T05:00:00Z,27.8903,-94.0367,4.0,5.8,170.4729494,7.29,'11111222,11111222,11111222' 
TABS,ioos:station:wmo:42046:1,2008-04-01T05:30:00Z,27.8903,-94.0367,4.0,5.25343697,177.9275583,6.93,'11111222,11111222,11111222' 
TABS,ioos:station:wmo:42046:1,2008-04-01T06:00:00Z,27.8903,-94.0367,4.0,4.788454866,174.968288,6.13,'11111222,11111222,11111222' 
TABS,ioos:station:wmo:42046:1,2008-04-01T06:30:00Z,27.8903,-94.0367,4.0,4.842323822,181.7753338,6.49,'11111222,11111222,11111222' 
TABS,ioos:station:wmo:42046:1,2008-04-01T07:00:00Z,27.8903,-94.0367,4.0,5.415025392,174.4896698,6.68,'11111222,11111222,11111222' 
TABS,ioos:station:wmo:42046:1,2008-04-01T07:30:00Z,27.8903,-94.0367,4.0,4.305624229,182.9290618,5.45,'11111222,11111222,11111222' 
TABS,ioos:station:wmo:42046:1,2008-04-01T08:00:00Z,27.8903,-94.0367,4.0,4.215234276,182.8558212,5.29,'11111222,11111222,11111222' 
TABS,ioos:station:wmo:42046:1,2008-04-01T08:30:00Z,27.8903,-94.0367,4.0,3.202499024,189.3448605,4.46,'11111222,11111222,11111222' 
TABS,ioos:station:wmo:42046:1,2008-04-01T09:00:00Z,27.8903,-94.0367,4.0,2.160925728,187.9803055,3.18,'11111222,11111222,11111222' 
TABS,ioos:station:wmo:42046:1,2008-04-01T09:30:00Z,27.8903,-94.0367,4.0,2.698629282,190.893731,3.43,'11111222,11111222,11111222' 
TABS,ioos:station:wmo:42046:1,2008-04-01T10:00:00Z,27.8903,-94.0367,4.0,2.75356133,182.9145637,3.78,'11111222,11111222,11111222' 
TABS,ioos:station:wmo:42046:1,2008-04-01T10:30:00Z,27.8903,-94.0367,4.0,4.647687597,170.9635158,6.07,'11111222,11111222,11111222' 
TABS,ioos:station:wmo:42046:1,2008-04-01T11:00:00Z,27.8903,-94.0367,4.0,4.488786027,171.5452026,5.68,'11111222,11111222,11111222' 
TABS,ioos:station:wmo:42046:1,2008-04-01T11:30:00Z,27.8903,-94.0367,4.0,4.419604055,159.8842401,5.98,'11111222,11111222,11111222' 
TABS,ioos:station:wmo:42046:1,2008-04-01T12:00:00Z,27.8903,-94.0367,4.0,3.352163481,162.1058137,4.4,'11111222,11111222,11111222' 
TABS,ioos:station:wmo:42046:1,2008-04-01T12:30:00Z,27.8903,-94.0367,4.0,3.106283954,162.9653269,4.25,'11111222,11111222,11111222' 
TABS,ioos:station:wmo:42046:1,2008-04-01T13:00:00Z,27.8903,-94.0367,4.0,4.289160757,168.2973363,5.15,'11111222,11111222,11111222' 
TABS,ioos:station:wmo:42046:1,2008-04-01T13:30:00Z,27.8903,-94.0367,4.0,5.376244042,162.2393401,6.6,'11111222,11111222,11111222' 
TABS,ioos:station:wmo:42046:1,2008-04-01T14:00:00Z,27.8903,-94.0367,4.0,4.217167296,148.8734241,5.47,'11111222,11111222,11111222' 
TABS,ioos:station:wmo:42046:1,2008-04-01T14:30:00Z,27.8903,-94.0367,4.0,3.960934233,151.1704721,5.07,'11111222,11111222,11111222' 
TABS,ioos:station:wmo:42046:1,2008-04-01T15:00:00Z,27.8903,-94.0367,4.0,4.302580621,158.0257539,5.97,'11111222,11111222,11111222' 
TABS,ioos:station:wmo:42046:1,2008-04-01T15:30:00Z,27.8903,-94.0367,4.0,3.454692461,156.9976677,4.56,'11111222,11111222,11111222' 
TABS,ioos:station:wmo:42046:1,2008-04-01T16:00:00Z,27.8903,-94.0367,4.0,2.725307322,155.5041152,3.78,'11111222,11111222,11111222' 
TABS,ioos:station:wmo:42046:1,2008-04-01T16:30:00Z,27.8903,-94.0367,4.0,3.154964342,158.2325751,4.02,'11111222,11111222,11111222' 
TABS,ioos:station:wmo:42046:1,2008-04-01T17:00:00Z,27.8903,-94.0367,4.0,2.823047998,159.2541787,3.97,'11111222,11111222,11111222' 
TABS,ioos:station:wmo:42046:1,2008-04-01T17:30:00Z,27.8903,-94.0367,4.0,1.953048899,145.0082721,2.82,'11111222,11111222,11111222' 
TABS,ioos:station:wmo:42046:1,2008-04-01T18:00:00Z,27.8903,-94.0367,4.0,1.328231907,116.3724961,2.31,'11111222,11111222,11111222' 
TABS,ioos:station:wmo:42046:1,2008-04-01T18:30:00Z,27.8903,-94.0367,4.0,2.100904567,66.7294233,3.05,'11111222,11111222,11111222' 
TABS,ioos:station:wmo:42046:1,2008-04-01T19:00:00Z,27.8903,-94.0367,4.0,2.475237362,74.05422047,3.52,'11111222,11111222,11111222' 
TABS,ioos:station:wmo:42046:1,2008-04-01T19:30:00Z,27.8903,-94.0367,4.0,2.947710976,80.82487325,3.92,'11111222,11111222,11111222' 
TABS,ioos:station:wmo:42046:1,2008-04-01T20:00:00Z,27.8903,-94.0367,4.0,2.833460781,92.83252567,3.68,'11111222,11111222,11111222' 
TABS,ioos:station:wmo:42046:1,2008-04-01T20:30:00Z,27.8903,-94.0367,4.0,4.01462327,80.537279,4.77,'11111222,11111222,11111222' 
TABS,ioos:station:wmo:42046:1,2008-04-01T21:00:00Z,27.8903,-94.0367,4.0,3.990313271,89.28162612,4.84,'11111222,11111222,11111222' 
TABS,ioos:station:wmo:42046:1,2008-04-01T21:30:00Z,27.8903,-94.0367,4.0,3.282986445,87.55551674,4.0,'11111222,11111222,11111222' 
TABS,ioos:station:wmo:42046:1,2008-04-01T22:00:00Z,27.8903,-94.0367,4.0,4.118859065,79.5081266,5.11,'11111222,11111222,11111222' 
TABS,ioos:station:wmo:42046:1,2008-04-01T22:30:00Z,27.8903,-94.0367,4.0,4.019664165,80.11547819,5.66,'11111222,11111222,11111222' 
TABS,ioos:station:wmo:42046:1,2008-04-01T23:00:00Z,27.8903,-94.0367,4.0,3.88363232,74.92564699,4.6,'11111222,11111222,11111222' 
TABS,ioos:station:wmo:42046:1,2008-04-01T23:30:00Z,27.8903,-94.0367,4.0,3.716517187,79.14319112,4.47,'11111222,11111222,11111222' 
TABS,ioos:station:wmo:42046:1,2008-04-02T00:00:00Z,27.8903,-94.0367,4.0,4.140301921,83.06339001,5.0,'11111222,11111222,11111222' 
TABS,ioos:station:wmo:42046:1,2008-04-02T00:30:00Z,27.8903,-94.0367,4.0,4.150590319,89.03323815,4.94,'11111222,11111222,11111222' 
TABS,ioos:station:wmo:42046:1,2008-04-02T01:00:00Z,27.8903,-94.0367,4.0,4.136786192,96.52413905,5.28,'11111222,11111222,11111222' 
TABS,ioos:station:wmo:42046:1,2008-04-02T01:30:00Z,27.8903,-94.0367,4.0,3.975738925,100.4341422,4.74,'11111222,11111222,11111222' 
TABS,ioos:station:wmo:42046:1,2008-04-02T02:00:00Z,27.8903,-94.0367,4.0,4.160624953,98.01365402,5.03,'11111222,11111222,11111222' 
TABS,ioos:station:wmo:42046:1,2008-04-02T02:30:00Z,27.8903,-94.0367,4.0,4.108965807,103.2249412,4.83,'11111222,11111222,11111222' 
TABS,ioos:station:wmo:42046:1,2008-04-02T03:00:00Z,27.8903,-94.0367,4.0,4.376528304,105.3703247,5.16,'11111222,11111222,11111222' 
TABS,ioos:station:wmo:42046:1,2008-04-02T03:30:00Z,27.8903,-94.0367,4.0,4.091760013,110.6055848,5.06,'11111222,11111222,11111222' 
TABS,ioos:station:wmo:42046:1,2008-04-02T04:00:00Z,27.8903,-94.0367,4.0,4.379429187,124.0169804,5.5,'11111222,11111222,11111222' 
TABS,ioos:station:wmo:42046:1,2008-04-02T04:30:00Z,27.8903,-94.0367,4.0,4.320416647,127.665954,5.49,'11111222,11111222,11111222' 
TABS,ioos:station:wmo:42046:1,2008-04-02T05:00:00Z,27.8903,-94.0367,4.0,3.918290444,136.2411826,4.77,'11111222,11111222,11111222' 
TABS,ioos:station:wmo:42046:1,2008-04-02T05:30:00Z,27.8903,-94.0367,4.0,4.152156066,142.6336284,4.83,'11111222,11111222,11111222' 
TABS,ioos:station:wmo:42046:1,2008-04-02T06:00:00Z,27.8903,-94.0367,4.0,4.615668966,147.2053933,5.78,'11111222,11111222,11111222' 
TABS,ioos:station:wmo:42046:1,2008-04-02T06:30:00Z,27.8903,-94.0367,4.0,3.933776811,151.2852001,4.95,'11111222,11111222,11111222' 
TABS,ioos:station:wmo:42046:1,2008-04-02T07:00:00Z,27.8903,-94.0367,4.0,4.18626325,152.7007021,5.27,'11111222,11111222,11111222' 
TABS,ioos:station:wmo:42046:1,2008-04-02T07:30:00Z,27.8903,-94.0367,4.0,3.891966084,156.531049,5.03,'11111222,11111222,11111222' 
TABS,ioos:station:wmo:42046:1,2008-04-02T08:00:00Z,27.8903,-94.0367,4.0,3.949544278,152.3971353,5.13,'11111222,11111222,11111222' 
TABS,ioos:station:wmo:42046:1,2008-04-02T08:30:00Z,27.8903,-94.0367,4.0,3.92318748,154.8069189,4.92,'11111222,11111222,11111222' 
TABS,ioos:station:wmo:42046:1,2008-04-02T09:00:00Z,27.8903,-94.0367,4.0,3.331140946,146.8826821,4.66,'11111222,11111222,11111222' 
TABS,ioos:station:wmo:42046:1,2008-04-02T09:30:00Z,27.8903,-94.0367,4.0,4.896988871,157.6774043,6.22,'11111222,11111222,11111222' 
TABS,ioos:station:wmo:42046:1,2008-04-02T10:00:00Z,27.8903,-94.0367,4.0,4.301918177,138.8644981,6.03,'11111222,11111222,11111222' 
TABS,ioos:station:wmo:42046:1,2008-04-02T10:30:00Z,27.8903,-94.0367,4.0,4.510709479,142.1141749,5.68,'11111222,11111222,11111222' 
TABS,ioos:station:wmo:42046:1,2008-04-02T11:00:00Z,27.8903,-94.0367,4.0,3.960227266,139.9168702,5.41,'11111222,11111222,11111222' 
TABS,ioos:station:wmo:42046:1,2008-04-02T11:30:00Z,27.8903,-94.0367,4.0,3.130255581,127.6024052,4.12,'11111222,11111222,11111222' 
TABS,ioos:station:wmo:42046:1,2008-04-02T12:00:00Z,27.8903,-94.0367,4.0,2.743228026,106.5195775,3.89,'11111222,11111222,11111222' 
TABS,ioos:station:wmo:42046:1,2008-04-02T12:30:00Z,27.8903,-94.0367,4.0,3.466770832,119.7452327,4.55,'11111222,11111222,11111222' 
TABS,ioos:station:wmo:42046:1,2008-04-02T13:00:00Z,27.8903,-94.0367,4.0,3.144137402,131.9062649,4.12,'11111222,11111222,11111222' 
TABS,ioos:station:wmo:42046:1,2008-04-02T13:30:00Z,27.8903,-94.0367,4.0,2.624576156,122.2371321,3.44,'11111222,11111222,11111222' 
TABS,ioos:station:wmo:42046:1,2008-04-02T14:00:00Z,27.8903,-94.0367,4.0,2.62975284,117.1500391,3.68,'11111222,11111222,11111222' 
TABS,ioos:station:wmo:42046:1,2008-04-02T14:30:00Z,27.8903,-94.0367,4.0,3.018078859,124.7435198,4.07,'11111222,11111222,11111222' 
TABS,ioos:station:wmo:42046:1,2008-04-02T15:00:00Z,27.8903,-94.0367,4.0,3.034880558,102.7544491,4.11,'11111222,11111222,11111222' 
TABS,ioos:station:wmo:42046:1,2008-04-02T15:30:00Z,27.8903,-94.0367,4.0,3.667219655,116.9147693,4.71,'11111222,11111222,11111222' 
TABS,ioos:station:wmo:42046:1,2008-04-02T16:00:00Z,27.8903,-94.0367,4.0,3.639299383,122.7734083,4.6,'11111222,11111222,11111222' 
TABS,ioos:station:wmo:42046:1,2008-04-02T16:30:00Z,27.8903,-94.0367,4.0,3.653080892,124.516941,4.76,'11111222,11111222,11111222' 
TABS,ioos:station:wmo:42046:1,2008-04-02T17:00:00Z,27.8903,-94.0367,4.0,3.95506005,129.7688024,5.2,'11111222,11111222,11111222' 
TABS,ioos:station:wmo:42046:1,2008-04-02T17:30:00Z,27.8903,-94.0367,4.0,3.834383914,131.087852,4.9,'11111222,11111222,11111222' 
TABS,ioos:station:wmo:42046:1,2008-04-02T18:00:00Z,27.8903,-94.0367,4.0,4.576210222,136.3284158,5.63,'11111222,11111222,11111222' 
TABS,ioos:station:wmo:42046:1,2008-04-02T18:30:00Z,27.8903,-94.0367,4.0,4.330288674,137.0590766,5.85,'11111222,11111222,11111222' 
TABS,ioos:station:wmo:42046:1,2008-04-02T19:00:00Z,27.8903,-94.0367,4.0,3.544009029,143.2597344,4.52,'11111222,11111222,11111222' 
TABS,ioos:station:wmo:42046:1,2008-04-02T19:30:00Z,27.8903,-94.0367,4.0,3.965211218,144.5466023,5.1,'11111222,11111222,11111222' 
TABS,ioos:station:wmo:42046:1,2008-04-02T20:00:00Z,27.8903,-94.0367,4.0,4.483859944,150.1761517,5.53,'11111222,11111222,11111222' 
TABS,ioos:station:wmo:42046:1,2008-04-02T20:30:00Z,27.8903,-94.0367,4.0,3.920204076,151.34316,5.01,'11111222,11111222,11111222' 
TABS,ioos:station:wmo:42046:1,2008-04-02T21:00:00Z,27.8903,-94.0367,4.0,3.729798922,150.6174216,4.99,'11111222,11111222,11111222' 
TABS,ioos:station:wmo:42046:1,2008-04-02T21:30:00Z,27.8903,-94.0367,4.0,3.815258838,144.6022758,4.63,'11111222,11111222,11111222' 
TABS,ioos:station:wmo:42046:1,2008-04-02T22:00:00Z,27.8903,-94.0367,4.0,3.293706119,141.2861582,4.16,'11111222,11111222,11111222' 
TABS,ioos:station:wmo:42046:1,2008-04-02T22:30:00Z,27.8903,-94.0367,4.0,3.142689931,145.5011578,4.0,'11111222,11111222,11111222' 
TABS,ioos:station:wmo:42046:1,2008-04-02T23:00:00Z,27.8903,-94.0367,4.0,2.988042838,143.4372001,3.85,'11111222,11111222,11111222' 
TABS,ioos:station:wmo:42046:1,2008-04-02T23:30:00Z,27.8903,-94.0367,4.0,2.446630336,134.6691307,3.15,'11111222,11111222,11111222' 
TABS,ioos:station:wmo:42046:1,2008-04-03T00:00:00Z,27.8903,-94.0367,4.0,2.576897359,128.3823439,3.38,'11111222,11111222,11111222' 
TABS,ioos:station:wmo:42046:1,2008-04-03T00:30:00Z,27.8903,-94.0367,4.0,2.932643858,120.7630685,3.78,'11111222,11111222,11111222' 
TABS,ioos:station:wmo:42046:1,2008-04-03T01:00:00Z,27.8903,-94.0367,4.0,3.150507896,121.3695656,4.02,'11111222,11111222,11111222' 
TABS,ioos:station:wmo:42046:1,2008-04-03T01:30:00Z,27.8903,-94.0367,4.0,3.893070767,114.5904806,4.64,'11111222,11111222,11111222' 
TABS,ioos:station:wmo:42046:1,2008-04-03T02:00:00Z,27.8903,-94.0367,4.0,5.270910737,133.0783642,6.54,'11111222,11111222,11111222' 
TABS,ioos:station:wmo:42046:1,2008-04-03T02:30:00Z,27.8903,-94.0367,4.0,4.790375768,132.8854847,5.87,'11111222,11111222,11111222' 
TABS,ioos:station:wmo:42046:1,2008-04-03T03:00:00Z,27.8903,-94.0367,4.0,5.466159529,135.5191495,7.19,'11111222,11111222,11111222' 
TABS,ioos:station:wmo:42046:1,2008-04-03T03:30:00Z,27.8903,-94.0367,4.0,4.063065345,148.3835439,5.34,'11111222,11111222,11111222' 
TABS,ioos:station:wmo:42046:1,2008-04-03T04:00:00Z,27.8903,-94.0367,4.0,4.428114723,148.8590036,6.06,'11111222,11111222,11111222' 
TABS,ioos:station:wmo:42046:1,2008-04-03T04:30:00Z,27.8903,-94.0367,4.0,4.03396827,141.3404926,5.39,'11111222,11111222,11111222' 
TABS,ioos:station:wmo:42046:1,2008-04-03T05:00:00Z,27.8903,-94.0367,4.0,3.541765097,146.3999564,4.76,'11111222,11111222,11111222' 
TABS,ioos:station:wmo:42046:1,2008-04-03T05:30:00Z,27.8903,-94.0367,4.0,3.663495598,133.8943595,4.75,'11111222,11111222,11111222' 
TABS,ioos:station:wmo:42046:1,2008-04-03T06:00:00Z,27.8903,-94.0367,4.0,4.821140944,141.0620903,5.66,'11111222,11111222,11111222' 
TABS,ioos:station:wmo:42046:1,2008-04-03T06:30:00Z,27.8903,-94.0367,4.0,4.188615523,141.1055006,5.51,'11111222,11111222,11111222' 
TABS,ioos:station:wmo:42046:1,2008-04-03T07:00:00Z,27.8903,-94.0367,4.0,5.047068456,137.6502567,6.33,'11111222,11111222,11111222' 
TABS,ioos:station:wmo:42046:1,2008-04-03T07:30:00Z,27.8903,-94.0367,4.0,5.547341706,144.390576,6.78,'11111222,11111222,11111222' 
TABS,ioos:station:wmo:42046:1,2008-04-03T08:00:00Z,27.8903,-94.0367,4.0,5.477974078,146.9194183,6.98,'11111222,11111222,11111222' 
TABS,ioos:station:wmo:42046:1,2008-04-03T08:30:00Z,27.8903,-94.0367,4.0,6.346794467,152.5066207,8.02,'11111222,11111222,11111222' 
TABS,ioos:station:wmo:42046:1,2008-04-03T09:00:00Z,27.8903,-94.0367,4.0,5.708239659,151.9986411,7.04,'11111222,11111222,11111222' 
TABS,ioos:station:wmo:42046:1,2008-04-03T09:30:00Z,27.8903,-94.0367,4.0,6.179482179,150.5314093,8.05,'11111222,11111222,11111222' 
TABS,ioos:station:wmo:42046:1,2008-04-03T10:00:00Z,27.8903,-94.0367,4.0,5.580546568,155.5478158,7.29,'11111222,11111222,11111222' 
TABS,ioos:station:wmo:42046:1,2008-04-03T10:30:00Z,27.8903,-94.0367,4.0,5.754042058,156.3309766,7.34,'11111222,11111222,11111222' 
TABS,ioos:station:wmo:42046:1,2008-04-03T11:00:00Z,27.8903,-94.0367,4.0,5.923926063,157.6779968,7.3,'11111222,11111222,11111222' 
TABS,ioos:station:wmo:42046:1,2008-04-03T11:30:00Z,27.8903,-94.0367,4.0,6.048024471,160.1871189,8.14,'11111222,11111222,11111222' 
TABS,ioos:station:wmo:42046:1,2008-04-03T12:00:00Z,27.8903,-94.0367,4.0,6.044013567,160.5759963,7.8,'11111222,11111222,11111222' 
TABS,ioos:station:wmo:42046:1,2008-04-03T12:30:00Z,27.8903,-94.0367,4.0,6.64939095,156.9827025,8.23,'11111222,11111222,11111222' 
TABS,ioos:station:wmo:42046:1,2008-04-03T13:00:00Z,27.8903,-94.0367,4.0,6.249479978,162.4930883,8.01,'11111222,11111222,11111222' 
TABS,ioos:station:wmo:42046:1,2008-04-03T13:30:00Z,27.8903,-94.0367,4.0,5.751956189,167.2445412,7.42,'11111222,11111222,11111222' 
TABS,ioos:station:wmo:42046:1,2008-04-03T14:00:00Z,27.8903,-94.0367,4.0,5.235618397,167.4239528,6.73,'11111222,11111222,11111222' 
TABS,ioos:station:wmo:42046:1,2008-04-03T14:30:00Z,27.8903,-94.0367,4.0,5.544005772,171.285498,7.06,'11111222,11111222,11111222' 
TABS,ioos:station:wmo:42046:1,2008-04-03T15:00:00Z,27.8903,-94.0367,4.0,5.705479822,175.7786623,7.77,'11111222,11111222,11111222' 
TABS,ioos:station:wmo:42046:1,2008-04-03T15:30:00Z,27.8903,-94.0367,4.0,6.454471318,171.8952348,8.33,'11111222,11111222,11111222' 
TABS,ioos:station:wmo:42046:1,2008-04-03T16:00:00Z,27.8903,-94.0367,4.0,5.710709238,179.0972015,7.37,'11111222,11111222,11111222' 
TABS,ioos:station:wmo:42046:1,2008-04-03T16:30:00Z,27.8903,-94.0367,4.0,5.874870211,185.2740941,7.2,'11111222,11111222,11111222' 
TABS,ioos:station:wmo:42046:1,2008-04-03T17:00:00Z,27.8903,-94.0367,4.0,5.679507021,188.3014954,7.3,'11111222,11111222,11111222' 
TABS,ioos:station:wmo:42046:1,2008-04-03T17:30:00Z,27.8903,-94.0367,4.0,5.797421841,187.3336016,7.45,'11111222,11111222,11111222' 
TABS,ioos:station:wmo:42046:1,2008-04-03T18:00:00Z,27.8903,-94.0367,4.0,5.557445456,184.541235,7.12,'11111222,11111222,11111222' 
TABS,ioos:station:wmo:42046:1,2008-04-03T18:30:00Z,27.8903,-94.0367,4.0,5.455730932,177.373811,6.82,'11111222,11111222,11111222' 
TABS,ioos:station:wmo:42046:1,2008-04-03T19:00:00Z,27.8903,-94.0367,4.0,5.533985905,177.8254714,6.85,'11111222,11111222,11111222' 
TABS,ioos:station:wmo:42046:1,2008-04-03T19:30:00Z,27.8903,-94.0367,4.0,5.795239426,175.8441636,7.18,'11111222,11111222,11111222' 
TABS,ioos:station:wmo:42046:1,2008-04-03T20:00:00Z,27.8903,-94.0367,4.0,6.393598361,170.184329,8.18,'11111222,11111222,11111222' 
TABS,ioos:station:wmo:42046:1,2008-04-03T20:30:00Z,27.8903,-94.0367,4.0,6.763379333,170.4682755,8.75,'11111222,11111222,11111222' 
TABS,ioos:station:wmo:42046:1,2008-04-03T21:00:00Z,27.8903,-94.0367,4.0,6.807172688,173.2510515,8.84,'11111222,11111222,11111222' 
TABS,ioos:station:wmo:42046:1,2008-04-03T21:30:00Z,27.8903,-94.0367,4.0,7.105955249,172.8052039,9.15,'11111222,11111222,11111222' 
TABS,ioos:station:wmo:42046:1,2008-04-03T22:00:00Z,27.8903,-94.0367,4.0,6.056352037,169.2469156,8.06,'11111222,11111222,11111222' 
TABS,ioos:station:wmo:42046:1,2008-04-03T22:30:00Z,27.8903,-94.0367,4.0,6.506811815,163.8492319,7.98,'11111222,11111222,11111222' 
TABS,ioos:station:wmo:42046:1,2008-04-03T23:00:00Z,27.8903,-94.0367,4.0,7.539423055,157.7896043,9.51,'11111222,11111222,11111222' 
TABS,ioos:station:wmo:42046:1,2008-04-03T23:30:00Z,27.8903,-94.0367,4.0,8.616594455,155.0114951,11.04,'11111222,11111222,11111222' 
TABS,ioos:station:wmo:42046:1,2008-04-04T00:00:00Z,27.8903,-94.0367,4.0,9.192959262,154.829001,12.31,'11111222,11111222,11111222' 
TABS,ioos:station:wmo:42046:1,2008-04-04T00:30:00Z,27.8903,-94.0367,4.0,8.920807138,158.1511453,11.29,'11111222,11111222,11111222' 
TABS,ioos:station:wmo:42046:1,2008-04-04T01:00:00Z,27.8903,-94.0367,4.0,8.067744418,159.1616025,10.53,'11111222,11111222,11111222' 
TABS,ioos:station:wmo:42046:1,2008-04-04T01:30:00Z,27.8903,-94.0367,4.0,7.178753374,164.570126,9.42,'11111222,11111222,11111222' 
TABS,ioos:station:wmo:42046:1,2008-04-04T02:00:00Z,27.8903,-94.0367,4.0,7.304423317,173.001691,9.39,'11111222,11111222,11111222' 
TABS,ioos:station:wmo:42046:1,2008-04-04T02:30:00Z,27.8903,-94.0367,4.0,7.757506043,167.7197757,10.94,'11111222,11111222,11111222' 
TABS,ioos:station:wmo:42046:1,2008-04-04T03:00:00Z,27.8903,-94.0367,4.0,8.455104967,166.4570655,11.15,'11111222,11111222,11111222' 
TABS,ioos:station:wmo:42046:1,2008-04-04T03:30:00Z,27.8903,-94.0367,4.0,8.639195564,166.2052771,11.61,'11111222,11111222,11111222' 
TABS,ioos:station:wmo:42046:1,2008-04-04T04:00:00Z,27.8903,-94.0367,4.0,8.238112648,167.0942443,10.49,'11111222,11111222,11111222' 
TABS,ioos:station:wmo:42046:1,2008-04-04T04:30:00Z,27.8903,-94.0367,4.0,7.421819184,172.0229734,9.62,'11111222,11111222,11111222' 
TABS,ioos:station:wmo:42046:1,2008-04-04T05:00:00Z,27.8903,-94.0367,4.0,8.584695685,172.4364577,11.18,'11111222,11111222,11111222' 
TABS,ioos:station:wmo:42046:1,2008-04-04T05:30:00Z,27.8903,-94.0367,4.0,8.465754544,169.7256552,10.69,'11111222,11111222,11111222' 
TABS,ioos:station:wmo:42046:1,2008-04-04T06:00:00Z,27.8903,-94.0367,4.0,9.349663096,170.0845518,11.97,'11111222,11111222,11111222' 
TABS,ioos:station:wmo:42046:1,2008-04-04T06:30:00Z,27.8903,-94.0367,4.0,9.173636138,172.7357679,11.86,'11111222,11111222,11111222' 
TABS,ioos:station:wmo:42046:1,2008-04-04T07:00:00Z,27.8903,-94.0367,4.0,8.687444964,175.4447077,11.17,'11111222,11111222,11111222' 
TABS,ioos:station:wmo:42046:1,2008-04-04T07:30:00Z,27.8903,-94.0367,4.0,8.423686841,176.7336106,10.76,'11111222,11111222,11111222' 
TABS,ioos:station:wmo:42046:1,2008-04-04T08:00:00Z,27.8903,-94.0367,4.0,8.686598874,173.4560835,11.05,'11111222,11111222,11111222' 
TABS,ioos:station:wmo:42046:1,2008-04-04T08:30:00Z,27.8903,-94.0367,4.0,9.337863781,170.5076486,12.98,'11111222,11111222,11111222' 
TABS,ioos:station:wmo:42046:1,2008-04-04T09:00:00Z,27.8903,-94.0367,4.0,8.911593572,174.4623616,11.96,'11111222,11111222,11111222' 
TABS,ioos:station:wmo:42046:1,2008-04-04T09:30:00Z,27.8903,-94.0367,4.0,8.152748003,174.8630575,10.54,'11111222,11111222,11111222' 
TABS,ioos:station:wmo:42046:1,2008-04-04T10:00:00Z,27.8903,-94.0367,4.0,7.864661468,176.501139,10.33,'11111222,11111222,11111222' 
TABS,ioos:station:wmo:42046:1,2008-04-04T10:30:00Z,27.8903,-94.0367,4.0,7.109781994,175.7251304,9.11,'11111222,11111222,11111222' 
TABS,ioos:station:wmo:42046:1,2008-04-04T11:00:00Z,27.8903,-94.0367,4.0,6.948820044,177.1131067,8.89,'11111222,11111222,11111222' 
TABS,ioos:station:wmo:42046:1,2008-04-04T11:30:00Z,27.8903,-94.0367,4.0,7.075542382,177.7322612,9.02,'11111222,11111222,11111222' 
TABS,ioos:station:wmo:42046:1,2008-04-04T12:00:00Z,27.8903,-94.0367,4.0,8.304071291,178.2059938,10.48,'11111222,11111222,11111222' 
TABS,ioos:station:wmo:42046:1,2008-04-04T12:30:00Z,27.8903,-94.0367,4.0,8.301951578,181.2425719,10.94,'11111222,11111222,11111222' 
TABS,ioos:station:wmo:42046:1,2008-04-04T13:00:00Z,27.8903,-94.0367,4.0,7.755804278,177.7834213,9.89,'11111222,11111222,11111222' 
TABS,ioos:station:wmo:42046:1,2008-04-04T13:30:00Z,27.8903,-94.0367,4.0,8.514845859,175.6221587,10.98,'11111222,11111222,11111222' 
TABS,ioos:station:wmo:42046:1,2008-04-04T14:00:00Z,27.8903,-94.0367,4.0,8.255822188,177.8482956,10.67,'11111222,11111222,11111222' 
TABS,ioos:station:wmo:42046:1,2008-04-04T14:30:00Z,27.8903,-94.0367,4.0,8.036330008,175.3609167,10.99,'11111222,11111222,11111222' 
TABS,ioos:station:wmo:42046:1,2008-04-04T15:00:00Z,27.8903,-94.0367,4.0,4.061489874,178.4482451,5.48,'11111222,11111222,11111222' 
TABS,ioos:station:wmo:42046:1,2008-04-04T15:30:00Z,27.8903,-94.0367,4.0,4.316758043,174.9499938,5.9,'11111222,11111222,11111222' 
TABS,ioos:station:wmo:42046:1,2008-04-04T16:00:00Z,27.8903,-94.0367,4.0,4.021007336,178.7176864,5.17,'11111222,11111222,11111222' 
TABS,ioos:station:wmo:42046:1,2008-04-04T16:30:00Z,27.8903,-94.0367,4.0,3.311857485,175.1503779,4.35,'11111222,11111222,11111222' 
TABS,ioos:station:wmo:42046:1,2008-04-04T17:00:00Z,27.8903,-94.0367,4.0,3.056304959,170.0139734,4.1,'11111222,11111222,11111222' 
TABS,ioos:station:wmo:42046:1,2008-04-04T17:30:00Z,27.8903,-94.0367,4.0,2.533337719,177.0587523,3.45,'11111222,11111222,11111222' 
TABS,ioos:station:wmo:42046:1,2008-04-04T18:00:00Z,27.8903,-94.0367,4.0,2.394932149,167.7049728,3.52,'11111222,11111222,11111222' 
TABS,ioos:station:wmo:42046:1,2008-04-04T18:30:00Z,27.8903,-94.0367,4.0,3.360014881,164.640437,4.53,'11111222,11111222,11111222' 